This is the latest recevied weather packets stored in our database for station/object GW1598. If no packets are shown the sender has not sent any weather packets the latest 10 day(s).
| Time | Temp. | Humidity | Pressure | Rain* | Wind** | Luminosity | Snow |
|---|---|---|---|---|---|---|---|
| 1777566439 | 11.67° C | 74% | 1010.1 hPa | 0 mm | - | - | - |
| 1777565021 | 11.11° C | 74% | 1010.1 hPa | 0 mm | - | - | - |
| 1777562130 | 10.56° C | 77% | 1009.8 hPa | 0 mm | - | - | - |
| 1777559257 | 9.44° C | 79% | 1009.8 hPa | 0 mm | - | - | - |
| 1777558875 | 9.44° C | 79% | 1009.8 hPa | 0 mm | - | - | - |
| 1777558526 | 10° C | 82% | 1009.4 hPa | 0 mm | - | - | - |
| 1777557798 | 10° C | 82% | 1009.4 hPa | 0 mm | - | - | - |
| 1777551683 | 8.89° C | 90% | 1008.1 hPa | 0 mm | - | - | - |
| 1777549896 | 7.22° C | 98% | 1007.7 hPa | 0 mm | - | - | - |
| 1777548462 | 6.67° C | 98% | 1007.4 hPa | 0 mm | - | - | - |
| 1777545935 | 6.67° C | 97% | 1007.1 hPa | 0 mm | - | - | - |
| 1777545576 | 7.22° C | 96% | 1006.7 hPa | 0 mm | - | - | - |
| 1777542702 | 7.78° C | 95% | 1006.4 hPa | 0 mm | - | - | - |
| 1777542345 | 7.78° C | 95% | 1006.4 hPa | 0 mm | - | - | - |
| 1777540879 | 8.89° C | 94% | 1006.4 hPa | 0 mm | - | - | - |
| 1777540534 | 9.44° C | 94% | 1006.7 hPa | 0 mm | - | - | - |
| 1777538721 | 9.44° C | 96% | 1007.1 hPa | 0 mm | - | - | - |
| 1777536207 | 9.44° C | 98% | 1006.7 hPa | 0 mm | - | - | - |
| 1777534412 | 10° C | 98% | 1006.4 hPa | 0 mm | - | - | - |
| 1777529177 | 11.11° C | 98% | 1007.1 hPa | 0 mm | - | - | - |
| 1777525575 | 11.67° C | 98% | 1006.7 hPa | 0 mm | - | - | - |
| 1777523807 | 12.22° C | 98% | 1006.7 hPa | 0 mm | - | - | - |
| 1777522339 | 12.22° C | 98% | 1006.4 hPa | 3.81 mm | - | - | - |
| 1777519854 | 12.22° C | 98% | 1006.4 hPa | 3.81 mm | - | - | - |
| 1777518740 | 12.22° C | 98% | 1006.4 hPa | 3.81 mm | - | - | - |
* Rain since midnight (hover to see other rain measurements)
** Current wind speed in m/s (hover to see current wind gust speed)